FW6625 Weather Reports


Display with metric or nautical units.
time (UTC)temp
F
wind
direction
speed
MPH
gust
MPH
rain 1hr
in
rain 24hr
in
rain mn
in
humidity
%
barometer
mb
20260506164538 80 94 1.0 6.0 0.00 0.00 0.00 89 1011.2
20260506163039 80 148 3.0 7.0 0.00 0.00 0.00 90 1011.0
20260506161544 80 108 2.0 9.0 0.00 0.00 0.00 91 1010.5
20260506160040 80 17 1.0 8.0 0.00 0.00 0.00 92 1010.5
20260506154544 79 158 2.0 9.0 0.00 0.00 0.00 92 1010.2
20260506153038 79 129 3.0 8.0 0.00 0.00 0.00 93 1010.0
20260506151543 78 153 2.0 7.0 0.00 0.00 0.00 94 1010.1
20260506150037 77 78 3.0 7.0 0.00 0.00 0.00 94 1009.9
20260506144548 77 96 2.0 7.0 0.00 0.00 0.00 95 1010.2
20260506143041 77 109 1.0 6.0 0.00 0.00 0.00 95 1010.2
20260506141540 77 132 1.0 4.0 0.00 0.00 0.00 95 1010.1
20260506140040 77 81 1.0 5.0 0.00 0.00 0.00 95 1009.9
20260506134538 77 129 1.0 7.0 0.00 0.00 0.00 95 1009.6
20260506133037 77 0 1.0 4.0 0.00 0.00 0.00 95 1009.7
20260506131537 77 52 1.0 6.0 0.00 0.00 0.00 96 1009.5
20260506130045 77 117 1.0 6.0 0.00 0.00 0.00 96 1009.5
20260506124543 76 111 0.0 4.0 0.00 0.00 0.00 96 1009.6
20260506123038 76 72 0.0 4.0 0.00 0.00 0.00 96 1009.6
20260506121537 76 61 1.0 4.0 0.00 0.00 0.00 96 1009.5
20260506120042 76 199 1.0 5.0 0.00 0.00 0.00 96 1009.3
20260506114538 76 37 0.0 4.0 0.00 0.00 0.00 96 1009.1
20260506113042 76 169 2.0 5.0 0.00 0.00 0.00 96 1009.3
20260506111540 76 125 1.0 4.0 0.00 0.00 0.00 97 1009.2
20260506110038 76 119 0.0 3.0 0.00 0.00 0.00 96 1009.1
20260506104540 76 117 0.0 3.0 0.00 0.00 0.00 97 1009.1
20260506103047 76 92 1.0 3.0 0.00 0.00 0.00 97 1008.8
20260506101544 76 0 0.0 3.0 0.00 0.00 0.00 97 1008.8
20260506100041 76 67 0.0 4.0 0.00 0.00 0.00 96 1008.7
20260506094542 76 60 2.0 5.0 0.00 0.00 0.00 96 1008.6
20260506093038 75 115 1.0 3.0 0.00 0.00 0.00 96 1008.5
20260506091538 75 108 1.0 2.0 0.00 0.00 0.00 96 1008.5
20260506090049 76 96 0.0 5.0 0.00 0.00 0.00 96 1008.6
20260506084548 76 124 1.0 5.0 0.00 0.00 0.00 96 1008.7
20260506083043 76 146 1.0 6.0 0.00 0.00 0.00 96 1008.8
20260506081542 76 115 0.0 3.0 0.00 0.00 0.00 96 1008.9
20260506073053 76 149 1.0 5.0 0.00 0.00 0.00 95 1009.5
20260506071541 76 119 2.0 6.0 0.00 0.00 0.00 95 1009.8
20260506061552 76 57 1.0 8.0 0.00 0.00 0.00 95 1009.6
20260506044546 76 123 4.0 9.0 0.00 0.00 0.00 93 1009.7
20260506043041 77 25 3.0 11.0 0.00 0.00 0.00 93 1009.7
20260506041544 77 168 4.0 9.0 0.00 0.00 0.00 93 1009.6
20260506040044 77 126 2.0 10.0 0.00 0.00 0.00 93 1009.8
20260506034542 77 101 3.0 10.0 0.00 0.00 0.00 93 1009.6
20260506033043 77 39 2.0 9.0 0.00 0.00 0.00 93 1009.6
20260506031546 77 112 2.0 9.0 0.00 0.00 0.00 93 1009.5
20260506030045 77 41 2.0 9.0 0.00 0.00 0.00 93 1009.3
20260506024553 77 184 4.0 8.0 0.00 0.00 0.00 93 1009.1
20260506023041 77 103 2.0 7.0 0.00 0.00 0.00 93 1008.8
20260506021551 77 150 3.0 10.0 0.00 0.00 0.00 93 1008.8
20260506020037 77 91 3.0 8.0 0.00 0.00 0.00 93 1008.8
20260506014544 77 124 4.0 10.0 0.00 0.00 0.00 93 1008.5
20260506013053 77 0 3.0 12.0 0.00 0.00 0.00 93 1008.3
20260506011552 77 87 2.0 7.0 0.00 0.00 0.00 93 1008.1
20260506010041 77 137 2.0 9.0 0.00 0.00 0.00 92 1008.1
20260506004538 77 145 3.0 9.0 0.00 0.00 0.00 92 1007.7
20260506003038 78 61 3.0 7.0 0.00 0.00 0.00 91 1007.7
20260506001542 78 86 3.0 10.0 0.00 0.00 0.00 91 1008.0
20260506000046 78 99 3.0 6.0 0.00 0.00 0.00 90 1008.0
20260505234542 78 108 2.0 9.0 0.00 0.00 0.00 90 1007.9
20260505233041 78 105 3.0 8.0 0.00 0.00 0.00 90 1008.1
20260505231550 78 173 4.0 10.0 0.00 0.00 0.00 90 1008.1
20260505230039 79 100 3.0 10.0 0.00 0.00 0.00 89 1008.2
20260505224538 79 41 4.0 9.0 0.00 0.00 0.00 88 1008.2
20260505223043 79 161 3.0 10.0 0.00 0.00 0.00 88 1008.3
20260505221539 80 115 1.0 7.0 0.00 0.00 0.00 88 1008.3
20260505220043 80 212 3.0 10.0 0.00 0.00 0.00 87 1008.5
20260505214600 81 94 4.0 12.0 0.00 0.00 0.00 85 1008.6
20260505213039 82 99 4.0 10.0 0.00 0.00 0.00 84 1008.7
20260505211537 81 121 1.0 11.0 0.00 0.00 0.00 86 1009.0
20260505210039 82 119 5.0 13.0 0.00 0.00 0.00 84 1008.9
20260505204543 82 67 2.0 12.0 0.00 0.00 0.00 85 1009.1
20260505203039 82 146 3.0 13.0 0.00 0.00 0.00 85 1009.3
20260505201538 82 120 5.0 12.0 0.00 0.00 0.00 85 1009.5
20260505200044 81 113 5.0 10.0 0.00 0.00 0.00 86 1009.6
20260505194537 82 129 5.0 13.0 0.00 0.00 0.00 84 1009.8
20260505193036 82 98 4.0 14.0 0.00 0.00 0.00 84 1009.9
20260505191544 82 111 4.0 13.0 0.00 0.00 0.00 84 1009.9
20260505190041 82 198 4.0 12.0 0.00 0.00 0.00 85 1010.0
20260505184538 82 133 5.0 13.0 0.00 0.00 0.00 84 1010.1
20260505183053 82 146 5.0 15.0 0.00 0.00 0.00 85 1010.2
20260505181541 81 122 5.0 16.0 0.00 0.00 0.00 86 1010.1
20260505180047 80 106 5.0 14.0 0.00 0.00 0.00 87 1010.3
20260505174554 80 102 5.0 13.0 0.00 0.00 0.00 88 1010.6
20260505173038 80 136 6.0 14.0 0.00 0.00 0.00 86 1010.5
20260505171543 80 105 4.0 14.0 0.00 0.00 0.00 87 1010.5
20260505170037 80 104 4.0 12.0 0.00 0.00 0.00 88 1010.7